When you browse on this site, cookies collect data to enhance your experience and personalize the content and advertising you see.
Visit our Privacy Policy to learn more. By continuing to use the site, you agree to this use of cookies and data.
  • Em Portugal
  • Lista de países
  • Para 7 dias
  • Temperatura da água
  • Mapas de satélite
  • Mapa do tempo
  • Widgets de tempo
  • user-avatar
    Iniciar Sessão

    Previsão horária em Mersin

    Hoje, 11 Dezembro, Terça-feira

    Tempo Temperatura Precipitação Vento Pressão Humidade
    00:00 +13°C° 0.7 mm 4 m/s 756 mmHg 90%
    01:00 +13°C° 0.7 mm 4 m/s 756 mmHg 91%
    02:00 +13°C° 0 mm 8 m/s 754 mmHg 92%
    03:00 +13°C° 1.2 mm 8 m/s 754 mmHg 91%
    04:00 +13°C° 1.2 mm 8 m/s 754 mmHg 91%
    05:00 +14°C° 1.2 mm 7 m/s 755 mmHg 91%
    06:00 +14°C° 0.2 mm 7 m/s 755 mmHg 87%
    07:00 +14°C° 0.2 mm 6 m/s 755 mmHg 83%
    08:00 +14°C° 0 mm 6 m/s 756 mmHg 78%
    09:00 +15°C° 0 mm 6 m/s 756 mmHg 70%
    10:00 +16°C° 0 mm 7 m/s 756 mmHg 61%
    11:00 +17°C° 0 mm 7 m/s 756 mmHg 53%
    12:00 +17°C° 0 mm 7 m/s 757 mmHg 52%
    13:00 +17°C° 0 mm 7 m/s 757 mmHg 52%
    14:00 +17°C° 0 mm 8 m/s 757 mmHg 51%
    15:00 +16°C° 0 mm 7 m/s 757 mmHg 56%
    16:00 +14°C° 0 mm 6 m/s 758 mmHg 62%
    17:00 +13°C° 0 mm 5 m/s 758 mmHg 67%
    18:00 +13°C° 0.1 mm 5 m/s 758 mmHg 69%
    19:00 +13°C° 0.1 mm 4 m/s 758 mmHg 70%
    20:00 +13°C° 0.1 mm 4 m/s 758 mmHg 72%
    21:00 +13°C° 0.5 mm 4 m/s 757 mmHg 76%
    22:00 +13°C° 0.5 mm 4 m/s 757 mmHg 80%
    23:00 +13°C° 0.5 mm 4 m/s 756 mmHg 84%

    Amanhã, 12 Dezembro, Quarta-feira

    Tempo Temperatura Precipitação Vento Pressão Humidade
    00:00 +13°C° 1.2 mm 5 m/s 756 mmHg 85%
    01:00 +13°C° 1.2 mm 6 m/s 756 mmHg 87%
    02:00 +13°C° 1.2 mm 6 m/s 756 mmHg 89%
    03:00 +11°C° 0.2 mm 6 m/s 755 mmHg 89%
    04:00 +11°C° 0.2 mm 6 m/s 755 mmHg 89%
    05:00 +11°C° 0.2 mm 6 m/s 755 mmHg 89%
    06:00 +11°C° 0 mm 6 m/s 756 mmHg 86%
    07:00 +11°C° 0 mm 6 m/s 756 mmHg 84%
    08:00 +13°C° 0 mm 6 m/s 756 mmHg 82%
    09:00 +14°C° 0.1 mm 7 m/s 756 mmHg 75%
    10:00 +15°C° 0.1 mm 8 m/s 756 mmHg 69%
    11:00 +16°C° 0.1 mm 10 m/s 756 mmHg 62%
    12:00 +16°C° 0.1 mm 10 m/s 756 mmHg 61%
    13:00 +16°C° 0.1 mm 10 m/s 756 mmHg 59%
    14:00 +16°C° 0.1 mm 10 m/s 756 mmHg 57%
    15:00 +13°C° 0 mm 9 m/s 757 mmHg 60%
    16:00 +12°C° 0 mm 8 m/s 757 mmHg 64%
    17:00 +11°C° 0 mm 7 m/s 758 mmHg 67%
    18:00 +10°C° 0 mm 7 m/s 758 mmHg 66%
    19:00 +10°C° 0 mm 7 m/s 759 mmHg 66%
    20:00 +9°C° 0 mm 6 m/s 759 mmHg 65%
    21:00 +9°C° 0 mm 6 m/s 760 mmHg 64%
    22:00 +8°C° 0 mm 6 m/s 760 mmHg 62%
    23:00 +8°C° 0 mm 5 m/s 761 mmHg 61%

    Depois de amanhã, 13 Dezembro, Quinta-feira

    Tempo Temperatura Precipitação Vento Pressão Humidade
    00:00 +7°C° 0 mm 5 m/s 761 mmHg 60%
    01:00 +7°C° 0 mm 4 m/s 762 mmHg 59%
    02:00 +6°C° 0 mm 4 m/s 762 mmHg 58%
    03:00 +6°C° 0 mm 4 m/s 763 mmHg 58%
    04:00 +6°C° 0 mm 4 m/s 763 mmHg 58%
    05:00 +6°C° 0 mm 4 m/s 763 mmHg 58%
    06:00 +6°C° 0 mm 4 m/s 764 mmHg 56%
    07:00 +6°C° 0 mm 4 m/s 764 mmHg 54%
    08:00 +7°C° 0 mm 4 m/s 765 mmHg 52%
    09:00 +9°C° 0 mm 3 m/s 765 mmHg 47%
    10:00 +11°C° 0 mm 3 m/s 765 mmHg 42%
    11:00 +12°C° 0 mm 3 m/s 765 mmHg 37%
    12:00 +13°C° 0 mm 2 m/s 765 mmHg 38%
    13:00 +14°C° 0 mm 2 m/s 765 mmHg 39%
    14:00 +14°C° 0 mm 2 m/s 765 mmHg 40%
    15:00 +12°C° 0 mm 2 m/s 765 mmHg 45%
    16:00 +11°C° 0 mm 1 m/s 765 mmHg 50%
    17:00 +9°C° 0 mm 1 m/s 766 mmHg 55%
    18:00 +8°C° 0 mm 2 m/s 766 mmHg 54%
    19:00 +8°C° 0 mm 2 m/s 766 mmHg 52%
    20:00 +8°C° 0 mm 2 m/s 766 mmHg 50%
    21:00 +8°C° 0 mm 2 m/s 766 mmHg 50%
    22:00 +8°C° 0 mm 3 m/s 767 mmHg 50%
    23:00 +8°C° 0 mm 3 m/s 767 mmHg 49%

    14 Dezembro, Sexta-feira

    Tempo Temperatura Precipitação Vento Pressão Humidade
    00:00 +8°C° 0 mm 2 m/s 767 mmHg 50%
    01:00 +8°C° 0 mm 2 m/s 766 mmHg 50%
    02:00 +9°C° 0 mm 2 m/s 766 mmHg 51%
    03:00 +9°C° 0.2 mm 2 m/s 766 mmHg 55%
    04:00 +9°C° 0.2 mm 3 m/s 766 mmHg 59%
    05:00 +9°C° 0.2 mm 3 m/s 766 mmHg 63%
    06:00 +9°C° 0.1 mm 3 m/s 766 mmHg 63%
    07:00 +9°C° 0.1 mm 3 m/s 766 mmHg 63%
    08:00 +10°C° 0.1 mm 3 m/s 766 mmHg 64%
    09:00 +11°C° 0.1 mm 3 m/s 766 mmHg 64%
    10:00 +12°C° 0.1 mm 3 m/s 766 mmHg 64%
    11:00 +13°C° 0.1 mm 3 m/s 766 mmHg 64%
    12:00 +13°C° 0 mm 3 m/s 766 mmHg 66%
    13:00 +13°C° 0 mm 3 m/s 766 mmHg 68%
    14:00 +13°C° 0 mm 3 m/s 765 mmHg 70%
    15:00 +12°C° 0 mm 3 m/s 765 mmHg 74%
    16:00 +12°C° 0 mm 2 m/s 766 mmHg 78%
    17:00 +10°C° 0 mm 2 m/s 766 mmHg 83%
    18:00 +10°C° 0 mm 2 m/s 766 mmHg 82%
    19:00 +10°C° 0 mm 3 m/s 766 mmHg 81%
    20:00 +9°C° 0 mm 3 m/s 767 mmHg 80%
    21:00 +9°C° 0 mm 3 m/s 767 mmHg 79%
    22:00 +9°C° 0 mm 3 m/s 767 mmHg 78%
    23:00 +9°C° 0 mm 3 m/s 767 mmHg 76%

    15 Dezembro, Sábado

    Tempo Temperatura Precipitação Vento Pressão Humidade
    00:00 +9°C° 0 mm 3 m/s 767 mmHg 76%
    01:00 +9°C° 0 mm 3 m/s 766 mmHg 75%
    02:00 +9°C° 0 mm 3 m/s 766 mmHg 74%
    03:00 +9°C° 0 mm 3 m/s 766 mmHg 73%
    04:00 +9°C° 0 mm 3 m/s 766 mmHg 73%
    05:00 +9°C° 0 mm 3 m/s 766 mmHg 72%
    06:00 +10°C° 0 mm 3 m/s 766 mmHg 71%
    07:00 +11°C° 0 mm 3 m/s 767 mmHg 69%
    08:00 +11°C° 0 mm 4 m/s 767 mmHg 68%
    09:00 +13°C° 0 mm 4 m/s 767 mmHg 67%
    10:00 +14°C° 0 mm 4 m/s 766 mmHg 66%
    11:00 +15°C° 0 mm 4 m/s 766 mmHg 66%
    12:00 +17°C° 0 mm 4 m/s 766 mmHg 66%
    13:00 +17°C° 0 mm 4 m/s 765 mmHg 66%
    14:00 +17°C° 0 mm 4 m/s 765 mmHg 66%
    15:00 +15°C° 0 mm 4 m/s 765 mmHg 69%
    16:00 +14°C° 0 mm 4 m/s 765 mmHg 72%
    17:00 +13°C° 0 mm 4 m/s 765 mmHg 75%
    18:00 +12°C° 0 mm 4 m/s 765 mmHg 74%
    19:00 +12°C° 0 mm 4 m/s 765 mmHg 72%
    20:00 +12°C° 0 mm 4 m/s 765 mmHg 70%
    21:00 +12°C° 0 mm 4 m/s 765 mmHg 70%
    22:00 +12°C° 0 mm 5 m/s 765 mmHg 70%
    23:00 +12°C° 0 mm 5 m/s 765 mmHg 70%

    16 Dezembro, Domingo

    Tempo Temperatura Precipitação Vento Pressão Humidade
    00:00 +12°C° 0 mm 5 m/s 765 mmHg 71%
    01:00 +12°C° 0 mm 5 m/s 764 mmHg 71%
    02:00 +12°C° 0 mm 5 m/s 764 mmHg 72%
    03:00 +12°C° 0 mm 5 m/s 764 mmHg 71%
    04:00 +12°C° 0 mm 5 m/s 764 mmHg 71%
    05:00 +12°C° 0 mm 5 m/s 763 mmHg 70%
    06:00 +11°C° 0 mm 6 m/s 763 mmHg 69%
    07:00 +13°C° 0 mm 6 m/s 764 mmHg 68%
    08:00 +13°C° 0 mm 6 m/s 764 mmHg 67%
    09:00 +14°C° 0 mm 6 m/s 763 mmHg 65%
    10:00 +15°C° 0 mm 6 m/s 763 mmHg 63%
    11:00 +16°C° 0 mm 6 m/s 763 mmHg 61%
    12:00 +17°C° 0 mm 6 m/s 763 mmHg 61%
    13:00 +17°C° 0 mm 6 m/s 762 mmHg 61%
    14:00 +17°C° 0 mm 6 m/s 762 mmHg 61%
    15:00 +16°C° 0 mm 5 m/s 762 mmHg 64%
    16:00 +14°C° 0 mm 5 m/s 762 mmHg 68%
    17:00 +13°C° 0 mm 5 m/s 762 mmHg 71%
    18:00 +13°C° 0 mm 5 m/s 763 mmHg 70%
    19:00 +13°C° 0 mm 5 m/s 763 mmHg 70%
    20:00 +12°C° 0 mm 5 m/s 763 mmHg 70%
    21:00 +12°C° 0 mm 5 m/s 763 mmHg 70%
    22:00 +12°C° 0 mm 5 m/s 763 mmHg 71%
    23:00 +12°C° 0 mm 5 m/s 763 mmHg 72%
    Mostrar mais